Dewpoint
-5 -5 -5 -5 -6 -10 -15 -17 -17 -19 -19 -13 -7 -5 -4 -4 -5 -12 -5 -9 -10 -11 7 12 13 13 12 11 15 15 18 17 14 14 15 12 13 12 13 12 11 11 11 12 12
-9 -10 -9 -7 -8 -11 -15 -18 -19 -19 -19 -16 -12 -7 -5 -5 -4 0 -7 -16 -19 -10 8 11 13 12 11 12 14 16 18 16 13 12 13 12 12 12 11 11 11 11 12 13 12
-8 -11 -13 -13 -13 -14 -16 -18 -18 -19 -19 -17 -13 -11 -7 -6 3 -4 -6 -22 -21 -11 6 7 12 11 11 13 13 15 17 16 14 14 11 11 11 10 10 10 11 12 13 13 12
-5 -10 -13 -15 -16 -16 -16 -16 -18 -18 -19 -17 -14 -12 -8 -5 -3 3 -5 -17 -22 -9 4 5 8 11 11 12 12 15 15 14 14 14 12 11 11 10 8 10 11 12 12 12 11
-3 -6 -11 -11 -15 -19 -20 -20 -19 -19 -19 -18 -14 -12 -9 2 -3 0 -3 -18 -21 1 3 2 5 10 11 12 11 14 14 13 13 14 12 11 10 11 10 11 11 12 11 10 9
-2 -3 -8 -10 -11 -19 -21 -20 -17 -16 -16 -15 -14 -12 -2 -0 -4 3 1 -25 -7 3 2 0 3 8 12 12 12 13 14 15 15 14 13 11 10 10 10 11 11 11 10 9 8
-3 -3 -4 -8 -9 -10 -10 -6 -3 -7 -8 -8 -10 -10 1 -2 -3 3 -0 -6 -5 1 -1 -2 -2 7 11 10 10 14 15 14 15 15 14 14 11 11 10 10 11 9 8 8 8
-8 -6 -3 -7 -9 -4 -4 -3 -2 0 -11 -10 -9 -3 -0 -5 0 2 0 -1 -1 -1 -3 -4 -2 5 10 8 11 15 15 17 15 16 15 15 15 11 10 10 9 8 8 8 9
-7 -8 -8 -6 -8 -4 -4 -4 -2 -1 -6 -7 -0 4 -6 -6 -0 -1 -1 1 -1 -1 -2 -2 0 8 10 9 12 17 18 17 18 16 15 15 16 11 9 9 9 8 8 9 10
-5 -7 -8 -9 -8 -5 -3 -4 -2 -0 -0 -1 2 1 -3 -4 -1 -5 -7 -2 -1 -4 -5 -4 -0 9 9 9 10 16 17 17 18 16 15 16 16 14 9 9 9 9 9 10 10
-5 -6 -7 -10 -7 -5 -3 3 6 7 5 1 -4 -3 -3 -3 -1 -3 -4 -6 -5 -5 -6 -8 -2 8 9 8 7 15 18 17 17 15 15 16 16 15 14 12 11 11 10 11 11
-4 -5 -7 -10 -10 -5 -2 0 -2 -2 -1 -4 -4 -3 -3 -4 -2 -3 -4 -6 -8 -6 -7 -8 -4 -1 7 9 5 6 14 17 17 14 14 16 16 15 15 14 13 11 11 11 11
-5 -6 -10 -13 -12 -5 -0 -1 -2 -1 -0 -7 -6 -5 -3 -3 -4 -3 -6 -7 -7 -9 -8 -5 -9 -7 7 9 6 6 15 16 16 16 15 15 16 16 15 14 14 15 13 11 11
-5 -9 -7 -15 -5 -2 -2 -1 -2 -1 1 -4 -5 -3 -3 -4 -5 -3 -6 -7 -10 -10 -9 -6 -8 -8 6 7 6 6 12 14 14 15 15 14 17 16 15 15 15 13 13 12 9
-8 -3 -5 -16 -1 -3 -1 -2 -1 -0 2 -5 -7 -3 -3 -3 -4 -5 -6 -6 -7 -10 -9 -9 -7 -5 2 5 4 4 4 15 15 12 10 14 14 14 16 16 15 13 13 13 11
-1 -7 -14 -16 -11 -1 -2 -1 -0 -1 3 -3 -5 -4 -3 -6 -4 -5 -6 -5 -4 -8 -9 -7 -7 -4 -1 -0 3 3 7 7 8 9 10 12 11 13 15 16 15 12 12 12 13
-10 -16 -15 -3 -2 -2 -1 -1 -1 0 -3 -3 -5 -6 -6 -6 -4 -4 -3 -3 -2 -2 -4 -6 -3 -4 -3 1 2 6 8 11 11 9 8 9 9 12 12 12 14 13 11 11 12
-13 -8 -5 -2 -1 -1 2 1 1 -2 -2 -4 -5 -6 -5 -6 -5 -4 -3 -3 -4 -3 -6 -6 -1 -3 -2 1 2 5 6 10 13 11 8 9 9 13 10 10 11 12 11 10 11
-7 -5 0 -0 -1 0 1 2 -1 -2 -4 -4 -5 -4 -4 -6 -5 -5 -4 -4 -4 -3 -1 -4 -3 -5 -5 -4 -1 1 5 4 8 12 12 11 10 12 9 10 10 11 12 12 12
1 -2 -2 0 1 1 1 -1 -2 -3 -4 -5 -1 -3 -2 -4 -6 -5 -4 -5 -4 -4 -3 1 -1 -5 -5 -6 -6 -2 -2 3 3 9 11 8 10 12 11 10 10 10 11 13 13
-0 -2 -3 -1 1 1 -2 -2 -4 -4 -3 -3 -5 -4 -4 -3 -3 -4 0 -1 -4 -3 -3 -1 -2 -2 -4 -4 -4 -4 -2 -2 -0 1 3 5 8 11 12 10 11 10 10 12 13
0 -1 -4 -1 -0 -4 -3 -3 -3 -5 -5 -5 -5 -4 -3 -2 -3 -4 -2 1 -2 -4 -2 -3 -2 1 -1 -5 -8 -7 -6 -4 -2 2 -1 0 13 9 9 9 10 10 10 12 14
1 -3 -4 -2 -1 -3 -3 -4 -3 -4 -5 -4 -4 -4 -3 -2 -1 -2 -2 -1 -1 -3 -0 -1 -2 1 0 -2 -4 -4 -3 -6 -7 -5 -1 -0 7 9 11 12 12 11 11 12 14
-1 -2 -4 -5 -6 -4 -2 -2 -3 -5 -4 -4 -3 -4 -3 -2 -2 0 -2 -3 -2 -3 0 0 -2 -1 3 3 1 -0 -3 -4 -3 -2 -3 -3 2 10 10 12 13 13 13 13 14
-3 -3 -2 -3 -6 -5 -5 -6 -5 -4 -7 -6 -2 -4 -3 -0 -1 -0 -3 -3 -2 1 -0 -3 -0 -1 1 0 -0 -0 -2 -4 -1 -1 -0 -3 -3 -2 8 10 13 14 15 16 15
1 -4 -6 -7 -7 -6 -6 -5 -7 -7 -8 -7 -7 -9 -5 -0 1 3 -2 -2 -1 -1 -1 -3 0 4 4 -1 -1 -0 -0 1 -2 -2 -3 -3 -3 0 9 11 13 15 15 16 16
2 -1 -2 -6 -6 -6 -5 -6 -6 -8 -7 -9 -8 -9 -7 -2 -2 -2 -3 -2 -1 1 1 -0 -0 1 3 -3 -1 -0 -1 -1 -2 -2 -2 -1 -2 7 8 10 12 15 15 15 16
Wind_Speed
8 8 8 8 9 9 9 7 7 7 8 9 9 8 8 8 8 9 8 8 12 12 16 10 13 12 12 8 5 4 3 8 10 17 12 13 12 13 8 13 10 7 24 26 24
10 9 9 9 8 9 10 9 7 7 7 7 8 8 7 7 8 14 13 13 13 16 15 16 15 14 15 8 6 7 3 5 4 12 19 20 17 13 13 13 11 18 26 26 22
11 11 10 9 8 8 8 8 7 6 6 6 6 7 6 5 8 7 16 14 16 17 14 14 12 15 12 5 14 3 3 3 6 5 22 19 16 15 15 11 18 24 30 26 22
12 13 12 11 9 8 8 8 7 6 5 5 6 5 5 5 2 4 7 12 17 19 16 15 13 16 9 9 12 2 2 1 9 2 13 15 15 11 9 16 17 23 28 26 23
11 13 13 12 11 9 8 7 6 5 4 4 4 3 4 7 6 4 6 12 19 21 19 18 16 16 8 7 6 4 7 14 8 2 13 14 12 10 7 16 20 24 25 24 21
11 12 13 13 12 10 8 6 5 4 3 3 3 3 4 13 2 3 5 14 18 19 19 18 13 13 2 16 2 7 10 13 5 8 8 12 14 13 15 20 25 24 24 22 20
12 12 12 12 11 10 8 7 6 5 2 2 3 4 9 4 3 3 10 14 16 18 19 17 12 12 9 10 5 7 12 11 3 2 4 3 14 14 17 24 26 24 22 20 19
11 12 13 12 10 8 9 8 6 6 4 0 3 3 9 4 3 7 10 13 14 14 15 15 12 16 15 6 6 9 9 9 7 5 3 7 12 17 20 25 24 24 22 20 19
12 13 13 12 9 8 10 7 7 3 2 3 3 4 5 3 7 9 11 15 13 12 11 12 11 17 14 12 8 2 5 11 8 2 2 6 12 13 22 23 23 23 22 22 21
11 12 13 12 8 7 8 4 5 1 2 2 5 7 6 12 12 12 11 13 15 12 11 13 12 13 13 12 9 5 10 14 10 4 4 3 2 7 20 21 17 21 23 22 22
11 13 14 13 6 5 6 7 2 4 9 9 5 5 5 7 13 11 11 15 13 12 14 18 13 16 16 15 5 21 13 16 11 9 4 11 9 7 7 9 16 17 20 22 21
13 14 14 12 5 4 2 4 8 7 5 1 5 4 2 11 14 14 15 13 14 14 18 11 18 17 7 12 7 8 18 18 10 9 3 7 8 5 10 14 14 19 20 24 25
14 15 15 11 4 5 5 6 6 7 9 6 6 7 9 9 13 17 18 14 13 16 17 14 14 18 9 10 11 7 9 12 12 8 6 10 2 10 11 17 14 20 15 27 28
16 16 13 6 2 3 4 3 7 6 6 9 8 5 6 9 8 17 17 10 10 14 12 15 13 16 7 14 10 6 21 18 15 18 7 16 2 1 14 11 17 24 18 20 28
18 18 9 6 4 5 1 6 7 3 3 3 6 3 9 10 17 14 16 10 11 11 9 13 9 9 13 15 11 9 3 28 29 9 15 20 6 9 20 19 21 30 28 22 24
19 9 0 4 6 4 5 8 4 8 3 5 5 6 11 11 7 12 16 11 10 10 11 13 8 10 17 8 4 5 2 5 7 10 7 16 14 15 19 28 29 36 34 32 31
8 4 6 11 3 4 7 6 8 3 3 5 4 11 13 3 8 12 14 15 10 11 11 13 10 15 16 12 10 9 13 4 4 8 3 1 9 8 23 24 30 34 40 40 31
6 8 8 3 3 6 6 11 5 6 10 3 4 5 6 6 5 14 12 14 17 13 10 13 13 15 11 14 12 14 13 7 6 5 5 14 4 8 16 23 29 37 42 41 36
8 6 1 2 5 7 11 10 5 3 2 2 8 10 8 6 6 7 11 14 10 13 14 12 15 17 13 15 15 15 15 13 8 3 9 11 12 15 13 14 26 33 37 41 37
5 5 4 4 6 8 12 8 5 4 3 9 2 2 4 4 8 6 9 4 0 6 12 9 9 12 10 11 17 17 11 15 13 13 16 12 11 11 5 10 14 18 31 36 35
5 5 2 4 8 15 3 7 6 4 7 10 3 2 1 1 3 5 11 3 1 1 8 14 11 8 9 14 14 12 11 11 16 15 15 7 3 16 21 12 13 17 19 33 32
9 1 1 4 11 4 6 5 5 7 3 1 4 9 6 6 8 3 3 8 7 12 8 13 9 11 15 13 17 18 19 17 11 14 12 15 5 8 10 11 10 12 16 23 27
9 7 2 7 5 6 3 6 4 0 4 4 2 5 2 4 6 5 1 5 4 10 5 8 10 10 12 8 5 10 15 15 18 14 14 12 5 10 10 9 7 10 20 21 22
7 5 6 3 3 6 5 2 8 1 4 3 4 4 5 4 4 5 8 7 4 7 9 7 14 13 4 9 11 17 18 14 16 12 14 12 9 15 12 11 10 10 13 22 23
10 3 5 2 5 6 4 2 3 1 1 2 6 4 5 6 2 3 4 5 9 7 7 9 16 9 1 7 11 10 13 15 14 17 15 10 10 5 16 13 13 14 12 10 15
6 2 4 5 2 6 6 3 5 2 3 3 5 6 6 8 4 6 7 7 3 12 12 12 11 3 12 8 10 13 8 9 8 13 14 18 18 12 19 15 15 14 13 13 14
3 3 9 7 5 7 9 4 6 4 3 4 6 8 9 4 5 9 8 9 7 6 10 10 10 9 13 11 10 13 14 10 13 14 14 15 16 13 6 7 9 12 11 12 14
Wind_Direction
1 348 339 330 321 314 309 303 294 284 276 275 266 259 262 269 273 268 244 231 216 189 168 174 180 189 183 197 205 170 225 195 167 149 146 141 136 99 115 134 159 127 141 144 147
6 357 344 334 324 317 314 310 300 289 278 271 276 266 261 267 277 261 239 216 205 189 172 180 186 184 197 200 226 214 256 171 321 144 158 165 145 148 151 154 134 127 135 145 150
7 2 354 340 329 317 309 308 305 296 284 270 274 275 268 273 287 209 219 216 194 187 179 187 192 191 204 175 249 229 286 211 111 49 149 145 143 159 148 157 144 140 146 153 152
7 3 357 349 336 328 318 313 307 295 277 263 275 271 258 240 283 204 212 205 185 175 187 199 204 210 211 211 212 238 325 117 144 268 139 143 146 187 149 144 150 153 150 151 157
3 1 359 357 350 338 328 322 319 311 291 267 259 264 228 234 253 302 233 188 175 178 196 201 208 217 224 247 216 149 129 124 139 293 170 142 153 112 115 126 148 151 153 154 158
4 0 358 358 358 356 353 350 351 338 301 272 258 233 226 247 306 286 202 180 181 183 194 199 212 227 303 262 186 96 148 121 104 118 167 147 138 129 141 147 146 155 158 158 158
8 3 359 359 3 9 11 6 4 356 315 255 226 223 250 277 326 189 176 177 183 190 197 205 219 219 248 227 103 80 151 145 91 91 80 345 170 122 147 149 149 160 160 159 159
11 6 3 359 359 358 356 347 346 349 358 72 185 178 270 215 188 162 166 177 187 191 207 208 223 241 256 165 97 170 151 164 159 204 90 297 122 129 154 153 156 159 161 162 159
11 10 4 359 353 346 342 336 341 331 359 25 56 201 191 181 172 178 170 177 175 185 198 204 227 232 218 238 156 271 180 182 139 114 110 22 139 148 159 159 167 162 162 167 158
5 3 360 356 348 340 345 329 326 214 247 316 263 240 214 196 157 158 164 176 181 179 193 212 219 217 237 219 223 130 256 164 136 131 88 121 128 168 176 168 166 170 166 170 165
352 350 350 350 336 323 337 337 298 213 225 294 140 309 143 152 165 169 167 169 181 200 209 203 214 213 223 228 304 143 213 119 93 132 115 182 160 195 250 171 178 190 182 171 174
339 340 341 339 319 272 308 293 17 346 274 230 222 220 153 163 174 171 168 182 197 207 225 184 224 221 175 298 268 293 107 104 89 175 114 133 139 197 259 228 223 186 195 186 183
330 331 332 329 298 222 241 301 319 321 252 101 177 194 181 198 193 173 188 212 204 215 210 224 218 234 173 216 252 212 137 140 128 192 138 132 82 238 234 251 250 258 249 194 183
325 325 326 324 126 202 256 274 325 309 261 133 158 126 170 212 205 185 197 207 207 222 203 246 249 206 186 238 234 250 121 144 162 174 158 201 92 194 194 220 252 241 244 240 192
325 322 310 208 204 233 246 319 307 269 224 84 108 138 163 220 125 185 195 210 243 213 219 215 229 222 211 225 212 87 138 141 206 179 141 194 160 177 191 199 215 236 230 233 211
328 329 161 154 202 218 284 309 301 235 95 110 144 190 187 214 184 145 194 236 292 230 217 276 236 204 226 207 203 117 166 201 186 244 221 177 229 173 189 202 204 213 226 223 224
1 64 134 141 121 251 290 279 232 300 201 125 165 181 223 146 152 173 192 206 206 202 201 223 212 221 242 166 171 196 187 189 248 216 235 113 217 151 192 197 193 202 204 214 212
75 102 118 132 253 291 288 245 293 27 20 126 232 210 209 179 141 185 189 212 233 241 193 204 189 207 209 232 171 210 231 193 207 257 213 166 239 119 168 180 192 192 197 199 207
101 102 99 285 287 278 272 258 50 357 348 197 203 209 148 185 288 239 218 223 180 248 274 190 245 173 192 230 231 191 216 228 213 248 293 210 129 136 169 166 192 188 190 199 203
135 163 60 284 275 273 256 29 98 38 250 244 350 251 12 149 215 216 193 175 79 205 311 310 201 157 201 227 235 264 212 224 222 243 238 189 184 112 115 188 194 199 189 186 201
207 191 35 266 275 256 75 71 116 68 322 320 335 206 79 309 310 287 333 18 344 141 272 276 266 153 196 203 219 214 241 248 259 234 264 255 149 148 165 183 187 198 205 180 187
280 167 189 285 271 316 97 62 298 104 157 72 307 336 336 11 269 280 209 112 318 286 228 245 287 206 211 207 223 228 209 238 235 232 261 284 104 333 116 139 171 168 174 168 182
267 109 248 277 283 113 158 113 1 349 28 9 67 346 340 310 281 257 231 65 273 255 346 333 235 254 230 160 230 261 243 223 238 255 240 242 144 128 129 130 150 169 167 163 176
272 203 144 206 351 316 189 92 138 55 90 332 356 281 274 251 172 304 243 166 233 260 0 303 276 269 353 6 324 194 235 235 253 247 232 229 195 162 161 144 151 159 177 168 173
242 26 8 75 104 36 337 341 305 77 163 275 185 304 334 296 250 273 253 215 209 149 233 243 259 286 198 240 284 285 221 209 232 256 267 251 261 264 157 149 153 155 167 160 166
306 288 194 84 112 263 135 41 331 69 326 28 294 339 290 279 72 256 337 296 303 175 231 234 264 48 303 213 255 280 215 267 255 235 251 267 275 42 86 122 139 145 169 173 178
304 276 281 117 204 260 67 24 23 325 132 296 312 290 251 26 357 318 282 271 182 264 281 243 259 249 247 267 289 231 249 249 236 252 251 245 255 45 94 116 138 144 165 172 178
Height
1517 1516 1514 1513 1512 1510 1509 1508 1507 1507 1506 1506 1506 1505 1505 1505 1505 1504 1505 1507 1506 1506 1509 1513 1515 1516 1517 1518 1518 1519 1522 1508 1502 1505 1514 1510 1516 1517 1523 1524 1526 1528 1535 1543 1550
1517 1515 1513 1512 1510 1509 1508 1507 1506 1505 1505 1505 1505 1505 1504 1504 1503 1503 1504 1502 1504 1506 1509 1512 1513 1514 1514 1515 1515 1515 1510 1503 1498 1498 1506 1509 1513 1519 1521 1523 1527 1530 1539 1547 1551
1517 1515 1513 1511 1509 1507 1506 1505 1505 1504 1504 1504 1504 1504 1504 1503 1503 1498 1498 1500 1501 1504 1510 1512 1511 1512 1511 1511 1510 1509 1510 1506 1502 1503 1502 1507 1514 1515 1516 1522 1528 1535 1541 1548 1552
1518 1515 1513 1510 1508 1507 1506 1504 1503 1503 1502 1502 1503 1503 1503 1503 1495 1496 1497 1497 1500 1504 1510 1511 1510 1509 1506 1508 1504 1509 1507 1507 1508 1508 1507 1509 1515 1518 1517 1520 1531 1539 1542 1548 1552
1518 1515 1513 1511 1508 1507 1505 1504 1503 1502 1502 1502 1501 1502 1503 1504 1500 1496 1495 1496 1500 1503 1507 1509 1508 1505 1503 1504 1502 1505 1510 1511 1513 1510 1510 1512 1515 1518 1523 1526 1533 1540 1545 1548 1552
1518 1516 1514 1511 1509 1507 1505 1503 1503 1502 1501 1501 1501 1501 1503 1501 1498 1498 1496 1497 1501 1504 1506 1507 1506 1505 1506 1504 1500 1506 1509 1516 1517 1513 1512 1513 1517 1521 1527 1530 1535 1542 1545 1549 1552
1519 1516 1514 1511 1509 1507 1506 1505 1503 1502 1501 1500 1500 1501 1503 1498 1497 1498 1498 1499 1502 1505 1505 1506 1506 1506 1501 1498 1501 1507 1510 1514 1521 1520 1519 1520 1518 1521 1528 1532 1537 1542 1545 1549 1553
1519 1516 1514 1512 1510 1508 1506 1505 1504 1502 1501 1500 1500 1500 1497 1496 1498 1498 1499 1501 1503 1504 1505 1506 1507 1504 1499 1497 1506 1508 1514 1521 1523 1524 1524 1522 1531 1523 1530 1533 1537 1541 1545 1549 1553
1519 1517 1514 1512 1510 1508 1506 1505 1504 1502 1502 1501 1501 1501 1492 1495 1497 1498 1499 1501 1503 1504 1505 1506 1507 1502 1498 1494 1503 1514 1519 1519 1528 1527 1528 1528 1531 1527 1530 1534 1536 1539 1544 1548 1552
1520 1517 1515 1512 1510 1508 1506 1504 1502 1502 1501 1501 1501 1504 1494 1493 1495 1498 1500 1501 1503 1505 1507 1507 1503 1497 1492 1487 1501 1518 1523 1514 1525 1534 1532 1537 1538 1534 1529 1532 1537 1539 1543 1547 1551
1519 1517 1514 1512 1510 1508 1506 1503 1505 1504 1501 1496 1494 1493 1493 1494 1497 1498 1500 1502 1502 1503 1499 1500 1497 1492 1481 1478 1480 1501 1501 1515 1526 1531 1535 1539 1540 1541 1537 1535 1540 1543 1543 1548 1551
1518 1516 1514 1511 1509 1508 1507 1506 1504 1505 1494 1495 1495 1495 1494 1494 1495 1496 1500 1500 1500 1497 1494 1494 1491 1479 1480 1484 1481 1477 1496 1521 1531 1535 1536 1540 1540 1544 1545 1539 1543 1543 1546 1547 1551
1517 1514 1512 1510 1508 1507 1507 1506 1504 1503 1495 1492 1493 1492 1494 1496 1491 1494 1497 1495 1495 1493 1489 1485 1477 1478 1481 1486 1487 1474 1508 1519 1527 1532 1537 1537 1549 1547 1547 1547 1545 1543 1545 1543 1547
1514 1512 1510 1509 1510 1508 1507 1506 1504 1502 1487 1491 1489 1492 1493 1491 1488 1492 1495 1494 1491 1488 1486 1484 1473 1477 1479 1484 1481 1485 1494 1512 1528 1524 1536 1528 1553 1546 1546 1547 1546 1544 1544 1539 1540
1512 1509 1507 1507 1506 1507 1507 1505 1503 1503 1496 1487 1487 1492 1490 1487 1485 1492 1494 1493 1486 1486 1486 1483 1478 1482 1487 1482 1482 1488 1486 1505 1513 1504 1507 1524 1523 1531 1537 1541 1541 1538 1540 1539 1538
1509 1506 1505 1507 1507 1507 1506 1504 1503 1496 1499 1484 1487 1487 1487 1483 1484 1489 1493 1492 1487 1484 1484 1476 1479 1481 1479 1478 1484 1487 1492 1493 1495 1494 1502 1496 1494 1516 1521 1514 1524 1533 1534 1538 1538
1507 1506 1505 1505 1508 1507 1505 1503 1493 1488 1483 1487 1483 1484 1480 1480 1482 1487 1489 1491 1486 1493 1490 1483 1484 1479 1477 1484 1489 1487 1494 1514 1516 1498 1496 1487 1489 1492 1492 1501 1508 1516 1527 1531 1536
1509 1508 1508 1507 1506 1505 1505 1497 1492 1487 1485 1487 1483 1482 1481 1482 1480 1481 1484 1484 1479 1475 1471 1486 1493 1480 1480 1474 1485 1489 1488 1503 1524 1509 1483 1475 1489 1486 1481 1488 1494 1505 1516 1526 1531
1510 1510 1510 1509 1506 1505 1505 1489 1488 1485 1488 1484 1484 1480 1481 1483 1483 1481 1478 1476 1473 1477 1477 1474 1479 1471 1476 1478 1476 1482 1490 1479 1491 1517 1516 1494 1473 1487 1477 1482 1489 1493 1507 1519 1524
1511 1509 1510 1508 1505 1505 1497 1498 1495 1493 1491 1486 1493 1486 1488 1480 1484 1481 1475 1471 1473 1477 1475 1475 1480 1474 1477 1482 1478 1476 1473 1490 1484 1513 1513 1487 1485 1481 1488 1485 1486 1486 1493 1507 1518
1511 1505 1510 1506 1505 1501 1490 1496 1496 1499 1497 1489 1485 1485 1484 1486 1489 1479 1492 1486 1483 1483 1485 1479 1475 1479 1475 1483 1480 1484 1486 1480 1471 1474 1485 1486 1484 1473 1475 1480 1484 1487 1490 1500 1514
1507 1499 1508 1507 1501 1491 1492 1496 1503 1497 1499 1495 1494 1489 1488 1490 1486 1486 1491 1494 1495 1489 1487 1483 1475 1484 1478 1470 1474 1469 1476 1478 1484 1490 1472 1468 1501 1476 1473 1477 1481 1486 1492 1501 1513
1505 1504 1507 1505 1492 1492 1502 1502 1500 1497 1499 1496 1495 1496 1497 1491 1498 1491 1490 1494 1498 1494 1490 1483 1485 1488 1482 1474 1475 1477 1474 1469 1469 1470 1479 1484 1483 1476 1481 1484 1486 1488 1492 1501 1512
1507 1497 1502 1502 1500 1494 1496 1499 1501 1507 1504 1503 1501 1500 1496 1494 1493 1494 1493 1492 1498 1494 1498 1496 1481 1479 1499 1491 1486 1480 1479 1474 1473 1477 1476 1471 1470 1477 1478 1483 1489 1492 1495 1502 1512
1507 1497 1500 1495 1497 1500 1500 1502 1502 1501 1505 1505 1501 1502 1501 1498 1493 1494 1492 1490 1497 1499 1500 1495 1492 1484 1480 1486 1481 1480 1472 1473 1482 1477 1480 1468 1469 1461 1468 1479 1490 1497 1503 1507 1511
1508 1503 1507 1504 1508 1503 1507 1504 1504 1503 1507 1503 1506 1503 1502 1500 1497 1508 1494 1491 1488 1491 1494 1490 1494 1497 1493 1482 1485 1483 1479 1483 1475 1479 1479 1475 1472 1465 1473 1482 1490 1500 1506 1512 1515
1514 1512 1508 1509 1504 1500 1500 1505 1508 1510 1510 1510 1512 1509 1501 1500 1504 1503 1499 1497 1496 1493 1492 1491 1491 1493 1500 1481 1481 1492 1481 1477 1481 1480 1479 1484 1474 1475 1477 1486 1493 1502 1510 1514 1516